GW3084 Weather Reports


Display with metric or nautical units.
time (UTC)temp
F
wind
direction
speed
MPH
gust
MPH
rain 1hr
in
rain 24hr
in
rain mn
in
humidity
%
barometer
mb
20260505121035 48 258 2.0 8.0 0.00 0.00 0.00 43 1006.7
20260505120030 45 272 2.0 4.0 0.00 0.00 0.00 46 1006.6
20260505115028 44 277 1.0 2.0 0.00 0.00 0.00 48 1006.6
20260505114022 43 275 0.0 3.0 0.00 0.00 0.00 49 1006.6
20260505113018 42 274 0.0 2.0 0.00 0.00 0.00 50 1006.6
20260505112035 42 278 0.0 2.0 0.00 0.00 0.00 50 1006.6
20260505111031 42 276 0.0 2.0 0.00 0.00 0.00 50 1006.5
20260505102034 43 280 0.0 2.0 0.00 0.00 0.00 48 1005.8
20260505101028 43 274 0.0 2.0 0.00 0.00 0.00 47 1005.8
20260505100025 44 302 0.0 1.0 0.00 0.00 0.00 47 1005.7
20260505095019 44 308 1.0 2.0 0.00 0.00 0.00 46 1005.6
20260505094017 44 315 1.0 8.0 0.00 0.00 0.00 46 1005.6
20260505093032 44 314 1.0 3.0 0.00 0.00 0.00 45 1005.6
20260505092028 45 312 2.0 9.0 0.00 0.00 0.00 45 1005.2
20260505091025 45 313 2.0 10.0 0.00 0.00 0.00 44 1004.9
20260505090022 46 318 4.0 13.0 0.00 0.00 0.00 44 1004.7
20260505085038 46 318 4.0 14.0 0.00 0.00 0.00 46 1004.4
20260505084034 47 320 5.0 16.0 0.00 0.00 0.00 47 1004.1
20260505083109 47 318 5.0 15.0 0.00 0.00 0.00 47 1003.9
20260505082025 47 317 4.0 14.0 0.00 0.00 0.00 47 1003.6
20260505081021 48 331 3.0 14.0 0.00 0.00 0.00 47 1003.5
20260505080017 48 345 2.0 9.0 0.00 0.00 0.00 46 1003.4
20260505075033 48 317 3.0 9.0 0.00 0.00 0.00 46 1003.3
20260505074049 49 322 4.0 11.0 0.00 0.00 0.00 45 1003.2
20260505073045 49 324 4.0 11.0 0.00 0.00 0.00 45 1003.2
20260505072021 50 322 4.0 11.0 0.00 0.00 0.00 44 1003.2
20260505071015 50 323 5.0 14.0 0.00 0.00 0.00 43 1003.1
20260505070030 51 323 5.0 13.0 0.00 0.00 0.00 43 1003.0
20260505065026 51 326 5.0 16.0 0.00 0.00 0.00 43 1003.0
20260505064018 51 313 3.0 10.0 0.00 0.00 0.00 44 1002.9
20260505063032 52 314 3.0 10.0 0.00 0.00 0.00 43 1002.8
20260505062027 53 315 3.0 13.0 0.00 0.00 0.00 43 1002.7
20260505061021 53 316 4.0 13.0 0.00 0.00 0.00 43 1002.5
20260505060016 53 319 4.0 13.0 0.00 0.00 0.00 45 1002.3
20260505055052 54 322 5.0 11.0 0.00 0.00 0.00 45 1002.1
20260505054028 54 318 3.0 8.0 0.00 0.00 0.00 45 1002.0
20260505053022 54 327 3.0 8.0 0.00 0.00 0.00 44 1001.9
20260505052019 55 320 4.0 10.0 0.00 0.00 0.00 44 1001.6
20260505051032 55 322 4.0 16.0 0.00 0.00 0.00 44 1001.4
20260505041028 58 314 3.0 10.0 0.00 0.00 0.00 38 1000.4
20260505040025 58 300 3.0 10.0 0.00 0.00 0.00 38 1000.3
20260505035022 59 310 3.0 9.0 0.00 0.00 0.00 38 1000.3
20260505034018 59 299 2.0 6.0 0.00 0.00 0.00 37 999.8
20260505033034 60 315 3.0 13.0 0.00 0.00 0.00 36 999.4
20260505032051 60 322 2.0 10.0 0.00 0.00 0.00 35 999.2
20260505031028 60 310 3.0 9.0 0.00 0.00 0.00 35 998.9
20260505030025 61 307 2.0 13.0 0.00 0.00 0.00 35 998.7
20260505025021 61 291 2.0 8.0 0.00 0.00 0.00 34 998.7
20260505024018 62 299 4.0 10.0 0.00 0.00 0.00 33 998.6
20260505023056 63 299 4.0 13.0 0.00 0.00 0.00 33 998.5
20260505022031 63 304 4.0 9.0 0.00 0.00 0.00 33 998.2
20260505021048 63 307 4.0 10.0 0.00 0.00 0.00 33 997.8
20260505020025 64 301 4.0 14.0 0.00 0.00 0.00 33 997.5
20260505015104 64 295 3.0 14.0 0.00 0.00 0.00 33 997.0
20260505014018 64 292 4.0 14.0 0.00 0.00 0.00 33 996.7
20260505013055 65 306 4.0 10.0 0.00 0.00 0.00 33 996.6
20260505012031 66 309 4.0 17.0 0.00 0.00 0.00 33 996.3
20260505011028 66 295 4.0 11.0 0.00 0.00 0.00 34 996.2
20260505010026 67 313 3.0 9.0 0.00 0.00 0.00 35 996.1
20260505005021 68 296 3.0 13.0 0.00 0.00 0.00 35 995.9
20260505004018 68 287 4.0 14.0 0.00 0.00 0.00 35 995.9
20260505003056 69 297 3.0 13.0 0.00 0.00 0.00 36 995.9
20260505002032 70 310 3.0 10.0 0.00 0.00 0.00 36 995.6
20260505001048 70 296 3.0 10.0 0.00 0.00 0.00 36 995.4
20260505000025 71 312 3.0 9.0 0.00 0.00 0.00 37 995.5
20260504235022 71 294 3.0 11.0 0.00 0.00 0.00 37 995.2
20260504234018 72 300 4.0 10.0 0.00 0.00 0.00 36 995.1
20260504233056 74 316 4.0 13.0 0.00 0.00 0.00 36 995.1
20260504232031 75 300 5.0 15.0 0.00 0.00 0.00 38 994.9
20260504231028 74 301 3.0 10.0 0.00 0.00 0.00 42 994.9
20260504230025 74 287 6.0 21.0 0.00 0.00 0.00 36 994.8
20260504225022 75 286 6.0 16.0 0.00 0.00 0.00 34 994.6
20260504224018 76 290 6.0 23.0 0.00 0.00 0.00 32 994.8
20260504223035 76 280 4.0 11.0 0.00 0.00 0.00 31 994.6
20260504222032 77 272 6.0 15.0 0.00 0.00 0.00 30 994.6
20260504221028 79 264 8.0 19.0 0.00 0.00 0.00 28 994.5
20260504220025 79 261 7.0 21.0 0.00 0.00 0.00 28 994.5
20260504215021 80 249 7.0 18.0 0.00 0.00 0.00 27 994.6
20260504214019 79 268 9.0 24.0 0.00 0.00 0.00 27 994.7
20260504213035 80 258 9.0 18.0 0.00 0.00 0.00 27 994.7
20260504212032 79 275 8.0 30.0 0.00 0.00 0.00 28 994.8
20260504211029 78 254 8.0 19.0 0.00 0.00 0.00 28 994.9
20260504210025 79 263 9.0 22.0 0.00 0.00 0.00 28 994.9
20260504205041 80 247 9.0 26.0 0.00 0.00 0.00 26 994.9
20260504204020 79 264 8.0 18.0 0.00 0.00 0.00 27 994.9
20260504203035 80 246 9.0 22.0 0.00 0.00 0.00 26 995.0
20260504202032 79 268 10.0 22.0 0.00 0.00 0.00 27 995.2
20260504201048 79 256 7.0 36.0 0.00 0.00 0.00 27 995.3
20260504200025 79 268 7.0 19.0 0.00 0.00 0.00 26 995.2
20260504195021 78 243 8.0 25.0 0.00 0.00 0.00 27 995.4
20260504194018 78 253 10.0 33.0 0.00 0.00 0.00 26 995.4
20260504193035 78 259 9.0 27.0 0.00 0.00 0.00 26 995.4
20260504192033 79 249 9.0 23.0 0.00 0.00 0.00 25 995.5
20260504191030 79 260 9.0 25.0 0.00 0.00 0.00 25 995.6
20260504190026 80 245 9.0 21.0 0.00 0.00 0.00 25 995.6
20260504185022 80 233 10.0 22.0 0.00 0.00 0.00 25 995.7
20260504184018 79 256 10.0 21.0 0.00 0.00 0.00 25 995.7
20260504183035 79 261 9.0 22.0 0.00 0.00 0.00 25 995.8
20260504182033 79 259 10.0 21.0 0.00 0.00 0.00 25 995.9
20260504181029 80 261 9.0 21.0 0.00 0.00 0.00 25 996.0
20260504180025 79 257 7.0 17.0 0.00 0.00 0.00 25 996.1
20260504175022 79 229 8.0 25.0 0.00 0.00 0.00 26 996.1
20260504174019 79 246 7.0 16.0 0.00 0.00 0.00 26 996.3
20260504173035 78 242 6.0 16.0 0.00 0.00 0.00 27 996.5
20260504172032 78 226 9.0 25.0 0.00 0.00 0.00 26 996.4
20260504171028 77 250 8.0 21.0 0.00 0.00 0.00 26 996.6
20260504151029 74 241 6.0 16.0 0.00 0.00 0.00 28 998.2
20260504141029 70 239 6.0 16.0 0.00 0.00 0.00 32 999.1